Total_Precipitation_Accumulation
0.05 0.09 0.15 0.19 0.17 0.13 0.09 0.07 0.09 0.14 0.26 0.33 0.43 0.46 0.42 0.40 0.39 0.37 0.32 0.29 0.23 0.20 0.21 0.29 0.38 0.40 0.46 0.54 0.66 0.68 0.79 0.87 0.92 1.02 1.10 1.15 1.20 1.19 1.15 1.16 1.16 1.22 1.27 1.25
0.04 0.07 0.11 0.13 0.16 0.11 0.08 0.07 0.07 0.14 0.30 0.38 0.36 0.35 0.44 0.44 0.42 0.38 0.33 0.29 0.28 0.30 0.30 0.30 0.34 0.41 0.48 0.49 0.60 0.75 0.92 1.03 1.11 1.25 1.36 1.46 1.59 1.68 1.59 1.50 1.54 1.60 1.56 1.46
0.07 0.10 0.11 0.15 0.14 0.12 0.13 0.12 0.12 0.18 0.29 0.34 0.37 0.43 0.64 0.67 0.59 0.55 0.44 0.41 0.41 0.43 0.41 0.39 0.39 0.43 0.49 0.54 0.67 0.84 1.05 1.23 1.33 1.47 1.63 1.79 1.89 1.92 1.86 1.89 1.95 1.96 1.86 1.69
0.12 0.16 0.22 0.19 0.19 0.16 0.18 0.20 0.21 0.27 0.32 0.42 0.57 0.65 0.74 0.82 0.73 0.64 0.51 0.44 0.43 0.53 0.54 0.48 0.51 0.58 0.66 0.77 0.92 1.10 1.28 1.44 1.60 1.64 1.68 1.77 1.85 1.80 1.81 1.93 1.98 1.96 1.86 1.74
0.22 0.25 0.24 0.24 0.28 0.28 0.31 0.40 0.39 0.46 0.53 0.61 0.67 0.64 0.65 0.60 0.54 0.45 0.45 0.50 0.49 0.53 0.62 0.65 0.65 0.70 0.78 0.83 0.94 1.13 1.29 1.38 1.45 1.57 1.68 1.73 1.74 1.76 1.81 1.84 1.75 1.64 1.59 1.58
0.35 0.38 0.39 0.40 0.42 0.38 0.43 0.74 0.71 0.63 0.65 0.65 0.68 0.81 0.74 0.56 0.49 0.49 0.48 0.48 0.50 0.50 0.54 0.62 0.71 0.73 0.74 0.83 0.95 1.15 1.29 1.31 1.33 1.47 1.58 1.66 1.70 1.73 1.70 1.66 1.61 1.56 1.49 1.51
0.49 0.51 0.44 0.43 0.39 0.37 0.62 0.86 0.80 0.80 0.86 0.80 0.84 0.89 0.81 0.65 0.62 0.56 0.51 0.47 0.47 0.52 0.53 0.56 0.65 0.71 0.79 0.90 0.98 1.04 1.13 1.20 1.28 1.42 1.53 1.57 1.64 1.65 1.63 1.60 1.61 1.61 1.54 1.47
0.64 0.76 0.75 0.55 0.46 0.62 0.80 0.66 0.78 0.83 0.80 0.83 0.80 0.72 0.71 0.68 0.70 0.64 0.55 0.54 0.53 0.55 0.65 0.70 0.72 0.72 0.78 0.79 0.79 0.86 0.92 0.98 1.01 1.11 1.24 1.31 1.41 1.42 1.45 1.43 1.39 1.37 1.35 1.28
0.84 0.91 0.75 0.65 0.67 0.72 0.71 0.67 0.70 0.80 0.84 0.86 0.88 0.83 0.71 0.65 0.61 0.69 0.67 0.59 0.57 0.58 0.63 0.67 0.74 0.78 0.85 0.82 0.78 0.77 0.76 0.77 0.79 0.85 1.01 1.16 1.22 1.20 1.23 1.24 1.22 1.19 1.18 1.16
1.02 1.04 0.90 0.84 0.80 0.72 0.70 0.71 0.70 0.79 0.92 0.95 0.90 0.78 0.68 0.57 0.47 0.44 0.44 0.43 0.48 0.51 0.57 0.63 0.64 0.67 0.74 0.76 0.76 0.79 0.79 0.80 0.82 0.86 0.95 1.19 1.31 1.24 1.18 1.17 1.14 1.13 1.08 1.09
1.09 1.16 0.98 0.87 0.82 0.81 0.78 0.75 0.75 0.83 0.93 0.91 0.79 0.72 0.64 0.53 0.43 0.37 0.34 0.32 0.37 0.41 0.43 0.43 0.44 0.49 0.54 0.59 0.67 0.71 0.69 0.66 0.67 0.74 0.86 1.05 1.21 1.21 1.07 1.05 1.05 1.06 1.04 1.01
1.13 1.05 1.06 1.08 0.98 0.93 0.94 0.91 0.89 0.91 0.95 0.87 0.75 0.67 0.59 0.45 0.37 0.34 0.32 0.32 0.37 0.40 0.42 0.42 0.44 0.50 0.58 0.65 0.73 0.76 0.72 0.67 0.65 0.67 0.77 0.96 1.16 1.23 1.05 0.86 0.84 0.82 0.77 0.74
0.98 0.94 1.02 1.09 1.09 1.10 1.15 1.07 1.00 1.00 0.92 0.81 0.77 0.67 0.55 0.46 0.38 0.36 0.34 0.34 0.37 0.40 0.43 0.50 0.53 0.49 0.51 0.61 0.70 0.77 0.74 0.69 0.65 0.64 0.68 0.79 1.02 1.25 1.28 1.03 0.81 0.71 0.58 0.48
0.93 0.93 1.06 1.12 1.19 1.21 1.16 1.07 1.00 1.03 0.97 0.84 0.75 0.64 0.55 0.50 0.44 0.41 0.41 0.43 0.48 0.53 0.57 0.59 0.59 0.56 0.53 0.57 0.63 0.68 0.69 0.67 0.61 0.56 0.56 0.64 0.86 1.13 1.32 1.28 1.11 0.86 0.58 0.41
0.87 0.99 1.01 0.93 0.99 1.04 1.02 0.95 0.87 0.94 0.93 0.84 0.72 0.58 0.51 0.49 0.51 0.51 0.52 0.58 0.67 0.69 0.65 0.63 0.61 0.58 0.55 0.56 0.59 0.59 0.62 0.60 0.56 0.53 0.53 0.58 0.76 1.02 1.22 1.29 1.23 1.11 0.82 0.50
0.84 0.88 0.78 0.74 0.82 0.88 0.90 0.84 0.75 0.78 0.77 0.71 0.67 0.61 0.53 0.50 0.51 0.52 0.57 0.68 0.84 0.86 0.75 0.68 0.64 0.62 0.62 0.61 0.57 0.51 0.51 0.47 0.40 0.39 0.43 0.47 0.59 0.81 1.05 1.18 1.13 1.07 0.91 0.55
0.82 0.84 0.78 0.70 0.77 0.87 0.89 0.81 0.75 0.74 0.72 0.71 0.70 0.66 0.63 0.62 0.60 0.62 0.71 0.78 0.81 0.80 0.72 0.67 0.62 0.55 0.55 0.59 0.59 0.51 0.45 0.39 0.29 0.26 0.34 0.40 0.46 0.64 0.88 1.06 1.02 0.94 0.82 0.51
0.70 0.65 0.63 0.58 0.63 0.71 0.72 0.65 0.65 0.65 0.67 0.74 0.76 0.70 0.72 0.76 0.81 0.90 0.95 0.93 0.84 0.71 0.63 0.60 0.54 0.48 0.47 0.43 0.40 0.38 0.37 0.36 0.31 0.31 0.36 0.39 0.43 0.60 0.82 0.96 0.93 0.88 0.79 0.56
0.53 0.51 0.50 0.44 0.43 0.46 0.45 0.43 0.44 0.45 0.47 0.55 0.60 0.63 0.65 0.67 0.73 0.86 0.90 0.99 1.02 0.88 0.65 0.50 0.46 0.40 0.38 0.33 0.30 0.29 0.28 0.29 0.28 0.29 0.33 0.32 0.42 0.60 0.75 0.83 0.81 0.77 0.67 0.55
0.47 0.47 0.40 0.36 0.36 0.35 0.34 0.32 0.31 0.33 0.37 0.43 0.44 0.44 0.47 0.53 0.64 0.80 0.88 0.97 1.03 0.92 0.70 0.52 0.39 0.32 0.26 0.20 0.20 0.24 0.27 0.29 0.30 0.31 0.33 0.40 0.50 0.63 0.68 0.68 0.66 0.64 0.61 0.60
0.45 0.44 0.33 0.30 0.27 0.23 0.21 0.20 0.18 0.22 0.28 0.30 0.30 0.30 0.35 0.41 0.50 0.69 0.98 1.17 1.02 0.81 0.64 0.51 0.38 0.26 0.19 0.17 0.15 0.18 0.23 0.27 0.33 0.38 0.41 0.46 0.55 0.64 0.65 0.63 0.58 0.55 0.56 0.59
0.45 0.37 0.31 0.26 0.21 0.20 0.17 0.16 0.15 0.17 0.19 0.20 0.21 0.22 0.28 0.37 0.48 0.58 0.77 1.05 1.07 0.95 0.68 0.48 0.35 0.23 0.18 0.16 0.14 0.16 0.19 0.22 0.28 0.34 0.37 0.41 0.50 0.59 0.58 0.53 0.49 0.48 0.52 0.59
0.42 0.34 0.30 0.25 0.20 0.18 0.15 0.14 0.14 0.15 0.15 0.17 0.17 0.19 0.24 0.34 0.47 0.73 0.86 0.79 0.85 0.94 0.72 0.50 0.41 0.30 0.20 0.16 0.19 0.20 0.21 0.25 0.32 0.35 0.33 0.36 0.39 0.45 0.49 0.46 0.47 0.48 0.54 0.55
0.39 0.33 0.27 0.23 0.20 0.19 0.19 0.17 0.16 0.18 0.16 0.14 0.13 0.14 0.20 0.32 0.41 0.54 0.71 0.76 0.78 0.83 0.65 0.49 0.40 0.30 0.24 0.21 0.25 0.30 0.36 0.42 0.43 0.38 0.33 0.34 0.36 0.40 0.46 0.46 0.43 0.47 0.51 0.52
0.38 0.30 0.24 0.20 0.19 0.20 0.19 0.16 0.16 0.18 0.17 0.16 0.15 0.15 0.17 0.25 0.40 0.55 0.64 0.70 0.80 0.84 0.72 0.57 0.44 0.37 0.32 0.34 0.39 0.48 0.55 0.48 0.41 0.36 0.32 0.32 0.37 0.42 0.44 0.47 0.50 0.49 0.49 0.49
0.32 0.28 0.23 0.19 0.18 0.18 0.17 0.17 0.17 0.17 0.18 0.20 0.19 0.18 0.21 0.26 0.34 0.46 0.56 0.61 0.67 0.77 0.71 0.54 0.38 0.35 0.36 0.41 0.47 0.52 0.50 0.45 0.39 0.37 0.36 0.37 0.41 0.44 0.43 0.46 0.50 0.49 0.49 0.50
0.26 0.23 0.22 0.20 0.19 0.18 0.17 0.19 0.20 0.21 0.22 0.26 0.30 0.31 0.32 0.35 0.39 0.46 0.52 0.56 0.58 0.58 0.53 0.42 0.32 0.31 0.31 0.32 0.37 0.40 0.41 0.41 0.41 0.40 0.41 0.43 0.45 0.46 0.43 0.41 0.40 0.40 0.40 0.40